TimeCST,TemperatureF,Dew PointF,Humidity,Sea Level PressureIn,VisibilityMPH,Wind Direction,Wind SpeedMPH,Gust SpeedMPH,PrecipitationIn,Events,Conditions,WindDirDegrees,DateUTC
12:15 AM,32.0,28.4,87,30.34,10.0,South,6.9,-,N/A,,Clear,190,2012-12-31 06:15:00
12:35 AM,32.0,28.4,87,30.32,10.0,South,5.8,-,N/A,,Clear,190,2012-12-31 06:35:00
12:55 AM,31.8,28.4,87,30.32,10.0,South,3.5,-,N/A,,Clear,180,2012-12-31 06:55:00
1:15 AM,31.8,28.4,87,30.31,10.0,Calm,Calm,-,N/A,,Clear,0,2012-12-31 07:15:00
1:55 AM,32.0,28.2,86,30.31,10.0,SSW,3.5,-,N/A,,Clear,200,2012-12-31 07:55:00
2:35 AM,32.4,28.4,85,30.31,10.0,SSW,4.6,-,N/A,,Clear,200,2012-12-31 08:35:00
2:55 AM,32.2,28.9,88,30.31,10.0,SSW,3.5,-,N/A,,Clear,200,2012-12-31 08:55:00
3:15 AM,32.2,29.1,88,30.31,10.0,Calm,Calm,-,N/A,,Clear,0,2012-12-31 09:15:00
3:35 AM,32.4,28.9,87,30.31,10.0,Calm,Calm,-,N/A,,Clear,0,2012-12-31 09:35:00
3:55 AM,32.5,29.1,87,30.31,10.0,SSW,3.5,-,N/A,,Clear,210,2012-12-31 09:55:00
4:15 AM,33.6,28.9,83,30.30,10.0,SSW,5.8,-,N/A,,Clear,210,2012-12-31 10:15:00
4:35 AM,33.8,29.1,83,30.30,10.0,SSW,5.8,-,N/A,,Clear,200,2012-12-31 10:35:00
4:55 AM,33.8,29.3,84,30.30,10.0,SSW,6.9,-,N/A,,Clear,200,2012-12-31 10:55:00
5:15 AM,33.8,29.3,84,30.30,10.0,SSW,6.9,-,N/A,,Clear,200,2012-12-31 11:15:00
5:35 AM,34.0,29.5,84,30.31,10.0,SSW,5.8,-,N/A,,Scattered Clouds,200,2012-12-31 11:35:00
5:55 AM,34.3,29.5,82,30.30,10.0,South,5.8,-,N/A,,Mostly Cloudy,190,2012-12-31 11:55:00
6:15 AM,34.7,29.5,81,30.29,10.0,SSW,5.8,-,N/A,,Overcast,200,2012-12-31 12:15:00
6:35 AM,34.9,29.3,80,30.29,10.0,SSW,5.8,-,N/A,,Overcast,210,2012-12-31 12:35:00
6:55 AM,34.9,29.5,81,30.28,10.0,SSW,5.8,-,N/A,,Overcast,210,2012-12-31 12:55:00
7:35 AM,35.6,30.0,80,30.27,10.0,SSW,6.9,-,N/A,,Overcast,200,2012-12-31 13:35:00
7:55 AM,35.8,30.0,80,30.28,10.0,SSW,9.2,-,N/A,,Overcast,210,2012-12-31 13:55:00
8:15 AM,35.6,30.2,81,30.28,5.0,SW,6.9,-,N/A,Snow,Light Snow,220,2012-12-31 14:15:00
8:35 AM,35.8,30.7,82,30.28,10.0,SSW,8.1,-,N/A,,Overcast,200,2012-12-31 14:35:00
8:55 AM,36.0,31.1,82,30.26,10.0,South,6.9,-,N/A,,Overcast,190,2012-12-31 14:55:00
9:15 AM,36.5,30.9,80,30.27,10.0,SSW,8.1,-,N/A,,Mostly Cloudy,210,2012-12-31 15:15:00
9:35 AM,36.9,30.9,79,30.27,10.0,SSW,8.1,-,N/A,,Overcast,210,2012-12-31 15:35:00
9:55 AM,37.4,30.9,77,30.26,10.0,SSW,6.9,-,N/A,,Overcast,200,2012-12-31 15:55:00
10:15 AM,38.3,31.3,76,30.26,10.0,SW,8.1,-,N/A,,Overcast,220,2012-12-31 16:15:00
10:35 AM,38.8,31.3,74,30.25,10.0,SSW,8.1,-,N/A,,Overcast,210,2012-12-31 16:35:00
10:55 AM,38.8,31.1,74,30.25,10.0,SW,8.1,-,N/A,,Overcast,220,2012-12-31 16:55:00
11:15 AM,38.8,31.1,74,30.23,10.0,SSW,6.9,-,N/A,,Overcast,200,2012-12-31 17:15:00
11:35 AM,39.2,31.1,73,30.23,10.0,SW,8.1,-,N/A,,Overcast,220,2012-12-31 17:35:00
11:55 AM,39.2,31.1,73,30.22,10.0,SW,4.6,-,N/A,,Overcast,220,2012-12-31 17:55:00
12:15 PM,39.4,31.1,72,30.21,10.0,SSW,4.6,-,N/A,,Overcast,200,2012-12-31 18:15:00
12:35 PM,39.6,31.6,73,30.19,10.0,SSW,5.8,-,N/A,,Overcast,200,2012-12-31 18:35:00
12:55 PM,40.3,31.3,70,30.18,10.0,SW,5.8,-,N/A,,Overcast,220,2012-12-31 18:55:00
1:15 PM,41.0,32.0,70,30.17,10.0,SSW,9.2,-,N/A,,Mostly Cloudy,210,2012-12-31 19:15:00
1:35 PM,41.4,32.0,69,30.16,10.0,SSW,6.9,-,N/A,,Mostly Cloudy,200,2012-12-31 19:35:00
1:55 PM,41.9,32.2,68,30.15,10.0,South,8.1,-,N/A,,Mostly Cloudy,190,2012-12-31 19:55:00
2:15 PM,42.1,32.0,67,30.15,10.0,SSW,6.9,-,N/A,,Overcast,210,2012-12-31 20:15:00
2:35 PM,41.9,31.8,67,30.15,10.0,SSW,4.6,-,N/A,,Overcast,210,2012-12-31 20:35:00
2:55 PM,41.5,32.0,69,30.17,10.0,SW,6.9,-,N/A,,Overcast,230,2012-12-31 20:55:00
3:15 PM,41.5,32.0,69,30.16,10.0,SW,6.9,-,N/A,,Overcast,220,2012-12-31 21:15:00
3:35 PM,41.0,32.5,72,30.15,10.0,South,4.6,-,N/A,Rain,Light Rain,190,2012-12-31 21:35:00
3:55 PM,40.8,32.9,73,30.15,10.0,SSW,5.8,-,N/A,,Overcast,210,2012-12-31 21:55:00
4:15 PM,40.6,33.1,74,30.14,10.0,SSW,3.5,-,N/A,,Overcast,200,2012-12-31 22:15:00
4:35 PM,40.5,33.1,75,30.13,10.0,South,3.5,-,N/A,,Overcast,180,2012-12-31 22:35:00
4:55 PM,40.3,33.3,76,30.13,10.0,South,3.5,-,N/A,,Overcast,180,2012-12-31 22:55:00
5:15 PM,40.3,33.1,75,30.14,10.0,Calm,Calm,-,N/A,,Overcast,0,2012-12-31 23:15:00
5:35 PM,40.1,33.8,78,30.13,10.0,Calm,Calm,-,N/A,Rain,Rain,0,2012-12-31 23:35:00
5:55 PM,39.9,34.0,79,30.13,10.0,Calm,Calm,-,N/A,Rain,Rain,0,2012-12-31 23:55:00
6:15 PM,39.2,34.7,84,30.14,10.0,Calm,Calm,-,N/A,,Overcast,0,2013-01-01 00:15:00
6:35 PM,38.3,36.5,93,30.14,10.0,Calm,Calm,-,N/A,Rain,Rain,0,2013-01-01 00:35:00
6:55 PM,38.3,36.9,95,30.14,7.0,Calm,Calm,-,N/A,Rain,Light Rain,0,2013-01-01 00:55:00
7:15 PM,37.6,37.0,98,30.14,5.0,Calm,Calm,-,0.02,Rain,Rain,0,2013-01-01 01:15:00
7:35 PM,37.6,37.4,99,30.12,5.0,Calm,Calm,-,0.04,Rain,Rain,0,2013-01-01 01:35:00
7:55 PM,37.4,37.0,99,30.11,4.0,South,4.6,-,0.06,Rain,Light Rain,170,2013-01-01 01:55:00
8:15 PM,37.6,36.9,97,30.11,2.5,SSE,3.5,-,0.04,Rain,Light Rain,160,2013-01-01 02:15:00
8:35 PM,37.4,37.4,100,30.10,2.5,SSE,4.6,-,0.09,Rain,Rain,160,2013-01-01 02:35:00
8:55 PM,37.4,37.4,100,30.10,3.0,South,3.5,-,0.11,Rain,Rain,170,2013-01-01 02:55:00
9:15 PM,37.4,37.4,100,30.08,3.0,SE,3.5,-,0.01,Rain,Light Rain,140,2013-01-01 03:15:00
9:35 PM,37.4,37.4,100,30.08,5.0,Calm,Calm,-,0.01,Rain,Rain,0,2013-01-01 03:35:00
9:55 PM,37.4,37.4,100,30.08,4.0,NE,3.5,-,0.01,,Drizzle,40,2013-01-01 03:55:00
10:15 PM,37.4,37.4,100,30.09,2.0,Calm,Calm,-,0.01,Rain,Rain,0,2013-01-01 04:15:00
10:35 PM,37.4,37.4,100,30.07,2.0,East,3.5,-,0.04,Rain,Rain,80,2013-01-01 04:35:00
10:55 PM,37.4,37.4,100,30.07,2.5,NE,4.6,-,0.05,Rain,Light Rain,40,2013-01-01 04:55:00
11:15 PM,37.4,37.4,100,30.07,2.0,NNE,4.6,-,0.01,Rain,Rain,20,2013-01-01 05:15:00
11:35 PM,37.4,37.4,100,30.07,2.5,NNE,3.5,-,0.01,,Drizzle,30,2013-01-01 05:35:00
11:55 PM,37.4,37.4,100,30.07,2.0,NNE,3.5,-,0.01,,Overcast,30,2013-01-01 05:55:00